Voltar ao catálogo

COSMOS 2251 DEB

AtivoLEO
NORAD 35469·DEBRIS·🇷🇺 Russia

Lançado Jun 16, 1993 de Plesetsk Cosmodrome

Loading…

Próximas Passagens (próximas 24 horas)

TLE

AtualizadoSource: Space-Track

Época: Sep 13, 2026, 06:20 UTC

1 35469U 93036ALP 26256.26424524  .00000270  00000-0  74639-4 0  9990
2 35469  74.0151 227.7548 0077778 314.3440  45.1362 14.50021949920903

Acompanhe COSMOS 2251 DEB em tempo real com AllMySat

Download on the App Store